HST
1 20580U 90037B   24356.75092914  .00007939  00000-0  33048-3 0  9990
2 20580  28.4665 164.8049 0001881 303.4435  56.5978 15.21874575705591
ISS (ZARYA)
1 25544U 98067A   24357.47990317  .00059687  00000-0  10441-2 0  9998
2 25544  51.6411 102.4658 0004048  17.3220  59.2988 15.50043966487758
CXO
1 25867U 99040B   24358.25981192  .00000403  00000-0  00000-0 0  9996
2 25867  45.5383 139.2238 8674532 305.5524   0.1363  0.37810200 15274